Regional Weather Roundup
Issued by NWS

Home | Current Version | Previous Version | Text Only | Print | Product List | Glossary On
Versions: 1 2 3 4 5 6 7 8 9 10 11 12 13 14 15 16 17 18 19 20 21 22 23 24 25 26 27 28 29 30 31 32 33 34 35 36 37 38 39 40 41 42 43 44 45 46 47 48 49 50
000
ASUS43 KTOP 261508
RWRKS

WEATHER ROUNDUP FOR KANSAS
NATIONAL WEATHER SERVICE GOODLAND KS
900 AM CST WED NOV 26 2014

NOTE:  "FAIR" INDICATES FEW OR NO CLOUDS BELOW 12,000 FEET WITH NO
SIGNIFICANT WEATHER AND/OR OBSTRUCTIONS TO VISIBILITY.

KSZ001>006-013>018-027>032-041>047-261600-
NORTHWEST KANSAS

CITY           SKY/WX    TMP DP  RH WIND       PRES   REMARKS
GOODLAND       CLOUDY    31  28  89 NW20G26   30.21R WCI  19
HAYS           MOSUNNY   39  21  48 NW21G28   30.15R WCI  29
HILL CITY      MOSUNNY   38  22  52 N29G36    30.16R WCI  26
RUSSELL        MOSUNNY   39  24  55 NW25      30.12R WCI  28
$$

KSZ061>065-074>080-084>089-261600-
SOUTHWEST KANSAS

CITY           SKY/WX    TMP DP  RH WIND       PRES   REMARKS
DODGE CITY     MOSUNNY   38  26  62 NW23G30   30.19R WCI  27
ELKHART          N/A     32  23  69 NW9         N/A
GARDEN CITY    PTSUNNY   33  27  78 NW18      30.21R WCI  22
GREAT BEND     PTSUNNY   41  27  56 NW18G25   30.15R
LIBERAL        SUNNY     36  27  69 W15       30.26R WCI  26
PRATT          PTSUNNY   41  30  65 NW22G29   30.15R
$$

KSZ066>073-081>083-090>101-261600-
SOUTHEAST KANSAS

CITY           SKY/WX    TMP DP  RH WIND       PRES   REMARKS
CHANUTE        SUNNY     43  30  60 NW13      30.04R
COFFEYVILLE    PTSUNNY   43  31  62 NW8       30.06R
HUTCHINSON     SUNNY     44  25  47 NW22G36   30.10R
MEDICINE LODGE   N/A     46  30  53 NW23G30   30.14R
NEWTON         MOSUNNY   43  27  52 NW21G31   30.09R
PARSONS        MOSUNNY   44  31  60 W8        30.06R
WICHITA INTL   MOSUNNY   46  28  49 NW20G31   30.09R
WICHITA JABRA  MOSUNNY   45  29  53 NW21G30   30.08R
WICHITA MCCONL MOSUNNY   45  27  49 NW20G26   30.09R
WINFIELD       PTSUNNY   46  31  55 NW10      30.10R
$$

KSZ007>012-019>026-033>040-048>060-102>105-261600-
NORTHEAST KANSAS

CITY           SKY/WX    TMP DP  RH WIND       PRES   REMARKS
CONCORDIA      CLOUDY    38  23  55 NW28G36   30.07R WCI  26
EMPORIA        CLOUDY    42  26  53 NW20G33   30.04R
LAWRENCE       PTSUNNY   39  32  76 W12       29.99R WCI  32
MANHATTAN      CLOUDY    42  25  50 NW8G18    30.04R
MARYSVILLE     PTSUNNY   37  28  70 NW26G41   30.02R WCI  26
OLATHE IND     PTSUNNY   39  33  79 NW15G21   29.98R WCI  31
OLATHE EXE     MOSUNNY   40  33  76 NW13G21   29.96R WCI  32
SALINA         SUNNY     43  25  49 NW26      30.08R
TOPEKA BILLARD CLOUDY    42  30  62 NW14G21   30.01R
TOPEKA FORBES  CLOUDY    42  31  64 NW18G29   29.99R
$$



USA.gov is the U.S. government's official web portal to all federal, state and local government web resources and services.